Location: Cahas Mountain Overlook
(37.0833°N, 80.1000°W)
Time: 18:25:08
(UTC-04:00)

BEESAT - Visible Passes

Search period start: 31 March 2023 00:00
Search period end: 10 April 2023 00:00
Orbit: 698 x 704 km, 98.5° (Epoch: 31 March)

Date Brightness Start Highest point End Pass type
(mag) Time Alt. Az. Time Alt. Az. Time Alt. Az.
31 Mar ? 22:01:53 10° NNE 22:02:18 12° NNE 22:02:18 12° NNE visible
31 Mar ? 23:40:42 10° NNW 23:41:10 12° NNW 23:41:10 12° NNW visible
01 Apr ? 22:44:10 10° N 22:45:21 18° N 22:45:21 18° N visible
02 Apr ? 21:49:14 10° NNE 21:49:32 12° NE 21:49:32 12° NE visible
02 Apr ? 23:27:17 10° NNW 23:28:24 15° NNW 23:28:24 15° NNW visible
03 Apr ? 22:31:12 10° NNE 22:32:35 19° NNE 22:32:35 19° NNE visible
04 Apr ? 21:36:41 10° NE 21:36:45 10° NE 21:36:45 10° NE visible
04 Apr ? 23:14:02 10° N 23:15:37 19° NNW 23:15:37 19° NNW visible
05 Apr ? 22:18:19 10° NNE 22:19:48 20° NNE 22:19:48 20° NNE visible
05 Apr ? 23:58:24 10° NW 23:58:40 11° NW 23:58:40 11° NW visible
06 Apr ? 23:00:53 10° N 23:02:49 23° NNW 23:02:49 23° NNW visible
07 Apr ? 22:05:31 10° NNE 22:06:59 19° NNE 22:06:59 19° NNE visible
07 Apr ? 23:44:28 10° NNW 23:45:51 14° NW 23:45:51 14° NW visible
08 Apr ? 22:47:48 10° N 22:50:00 27° N 22:50:00 27° N visible
09 Apr ? 21:52:47 10° NNE 21:54:09 18° NE 21:54:09 18° NE visible
09 Apr ? 23:30:58 10° NNW 23:33:01 19° NW 23:33:01 19° NW visible
